Wind_Speed
33 32 32 31 31 30 30 31 31 31 31 30 29 29 28 27 27 27 26 25 25 24 24 23 23 23 23 23 23 22 22 22 22 22 21 21 21 21 21 21 21 21 21
35 34 34 34 33 32 32 31 32 32 32 32 31 30 30 29 28 28 28 27 27 26 26 26 25 24 25 24 24 24 24 24 24 24 23 23 23 23 23 23 23 23 23
35 36 35 35 35 35 35 34 34 34 33 33 33 32 31 32 31 30 30 30 29 29 28 28 28 27 27 27 26 25 25 26 26 26 26 26 26 26 26 25 25 25 25
37 37 37 36 36 36 36 36 36 36 35 34 33 33 33 33 33 32 32 31 31 30 30 30 29 29 29 29 28 27 27 27 27 27 27 27 27 27 27 27 27 27 26
38 38 37 37 37 37 37 37 37 37 37 36 36 35 35 34 34 35 34 34 33 32 32 31 31 31 31 31 30 30 29 28 28 28 28 28 28 28 28 28 28 28 28
38 39 38 37 38 38 38 38 38 38 38 38 37 37 36 36 36 36 36 36 36 35 35 34 33 33 33 33 33 32 31 30 30 29 29 29 29 29 29 29 29 29 30
39 38 38 37 37 38 39 39 40 40 39 39 40 40 39 38 38 38 38 38 37 37 37 37 36 35 34 34 34 33 33 33 32 31 31 31 31 31 31 31 31 32 32
38 38 38 38 38 38 39 40 41 41 41 41 40 40 40 40 39 40 39 39 39 39 38 38 37 37 36 35 35 35 34 34 34 34 34 33 33 33 34 34 33 33 34
41 40 39 39 40 41 41 41 42 42 42 42 42 41 41 41 42 41 41 41 40 40 39 39 39 38 38 37 37 37 37 36 36 36 36 35 36 36 35 36 35 35 35
41 41 41 41 42 42 42 42 42 42 42 42 43 44 44 43 44 42 42 41 41 41 41 41 40 39 39 39 39 39 38 37 37 37 36 37 37 38 38 37 37 37 37
43 43 43 43 43 44 44 44 44 44 44 44 44 45 45 45 45 45 44 44 44 43 42 42 42 42 41 41 41 40 40 39 38 38 37 37 37 38 38 39 39 39 39
45 45 45 44 45 45 46 45 45 45 45 45 45 45 45 45 46 47 46 46 46 45 44 43 43 43 43 43 43 42 42 41 41 40 39 38 38 38 39 40 41 41 41
46 46 47 47 47 47 47 47 47 47 47 47 47 46 46 46 47 48 48 48 47 47 46 46 46 45 45 44 44 44 43 43 43 42 42 41 40 40 40 41 42 42 42
47 47 48 48 48 49 49 49 48 49 49 49 49 49 48 48 48 49 49 49 49 49 48 48 48 47 46 46 46 45 45 45 44 44 44 43 43 42 42 42 42 43 43
49 49 49 48 49 49 49 50 49 49 50 50 50 50 50 49 49 49 51 51 51 50 50 49 49 48 48 48 48 47 47 46 46 46 46 46 45 45 44 43 43 44 43
49 50 50 49 49 50 50 51 51 51 51 51 51 51 51 50 50 50 51 52 52 52 52 51 50 50 50 50 50 50 49 49 48 48 47 47 47 47 47 46 46 46 44
49 50 51 51 52 52 52 52 52 52 53 52 52 52 52 52 52 52 51 52 53 53 53 52 52 52 52 52 52 52 51 51 50 50 49 49 49 49 48 48 48 48 47
50 50 51 52 53 53 54 53 53 53 54 53 53 53 53 53 53 53 53 53 54 54 55 54 54 54 54 54 53 53 53 52 52 52 51 51 51 50 50 50 50 50 50
51 51 51 51 52 53 54 54 53 54 54 54 54 54 54 54 54 55 55 55 55 55 55 55 55 55 54 55 55 55 55 54 54 53 53 52 52 52 52 52 52 52 52
52 51 51 51 52 53 53 54 54 54 55 55 55 56 56 55 56 56 56 56 56 56 56 56 56 56 55 56 56 56 56 56 55 54 54 54 54 53 53 53 53 52 52
53 52 52 51 52 53 54 54 54 54 55 55 56 57 57 57 57 57 57 57 58 58 58 58 58 58 57 57 57 57 57 57 56 56 56 55 55 54 54 54 53 53 53
52 53 53 52 53 53 54 55 55 55 56 55 56 57 57 57 58 58 58 59 59 59 59 59 59 58 58 58 58 58 58 58 58 57 57 56 55 54 54 54 54 54 54
52 53 53 54 54 54 55 56 57 57 57 57 57 58 58 58 59 59 60 59 59 58 58 58 58 57 57 57 58 59 59 58 58 58 57 56 56 55 55 55 55 55 55
52 52 53 54 54 55 56 57 58 58 58 58 59 59 60 59 59 60 59 59 57 57 57 58 57 57 57 57 57 58 58 58 58 58 58 57 57 57 56 56 55 56 55
52 52 53 53 54 55 55 56 57 57 57 57 58 58 59 60 60 60 60 59 58 57 57 57 57 57 56 56 56 56 56 57 57 57 57 58 57 58 57 57 57 57 56
51 52 53 54 54 55 56 56 57 57 57 58 58 57 58 59 59 59 59 58 58 58 58 58 58 57 57 56 56 57 57 57 57 57 57 58 58 58 58 58 58 58 57
Wind_Direction
246 245 245 246 246 245 245 246 246 245 244 245 245 246 247 248 250 250 252 253 255 256 257 259 261 262 262 264 266 267 268 269 271 272 272 272 270 270 269 269 270 272 273
248 247 246 246 247 247 245 246 246 245 245 245 245 246 247 249 250 251 252 254 256 257 258 259 260 262 263 264 265 267 268 270 272 271 272 272 272 271 270 269 269 271 271
248 248 247 247 247 247 247 247 247 247 247 247 246 247 248 250 251 252 253 255 257 257 258 259 260 262 263 265 266 268 270 270 271 271 271 272 273 272 271 269 268 269 270
249 249 248 247 248 248 248 248 248 248 248 248 248 248 249 250 251 252 253 255 257 258 258 259 260 260 262 264 265 268 270 271 270 270 271 272 273 273 272 271 269 268 269
249 249 249 249 248 248 248 248 247 248 248 249 249 250 250 251 251 252 254 255 257 258 259 259 259 260 262 264 265 267 269 269 270 270 270 271 272 272 271 270 269 268 269
250 249 249 249 248 248 248 249 249 249 249 250 251 251 251 252 253 254 254 255 256 257 258 259 260 262 264 265 266 267 268 268 269 270 270 271 271 272 270 269 269 269 270
249 249 248 247 247 248 249 249 250 249 249 250 252 252 252 253 253 255 255 256 257 258 258 259 261 263 264 265 266 267 268 268 269 270 270 271 271 271 272 270 269 269 269
250 249 249 248 248 248 249 250 250 250 250 250 251 252 253 254 254 255 256 256 257 257 258 259 260 262 263 264 265 266 267 268 269 270 271 271 270 270 271 271 269 269 269
251 250 250 250 249 249 249 250 250 249 250 250 251 251 253 255 255 255 256 256 257 257 258 258 260 262 262 264 264 265 266 266 268 270 270 270 270 270 271 270 269 269 269
251 252 252 252 251 251 250 249 249 249 250 251 251 252 254 255 255 256 256 256 257 257 258 259 260 261 262 264 264 264 265 266 268 269 269 269 269 270 271 270 270 269 269
252 252 252 254 253 252 252 251 250 252 252 253 254 254 255 256 256 257 257 257 258 259 259 260 261 262 263 264 264 264 265 266 268 268 268 268 269 269 270 270 270 270 270
252 252 252 254 254 254 253 252 252 253 253 254 255 256 256 256 257 257 257 258 258 259 260 261 261 262 263 264 264 264 265 266 267 268 268 268 269 269 270 270 269 269 270
254 254 253 254 254 255 254 253 254 254 255 256 256 256 257 257 257 258 258 258 258 258 260 261 261 262 263 263 264 264 265 266 267 268 269 269 270 270 270 270 270 270 270
255 255 256 255 254 255 256 255 255 255 255 255 256 257 257 258 258 257 258 258 257 258 259 261 261 262 262 263 264 264 265 266 267 268 269 269 270 270 270 270 271 271 270
257 256 257 256 256 257 257 256 255 255 255 256 256 257 258 258 258 258 258 257 257 257 258 260 260 261 262 263 264 264 266 267 267 267 268 269 270 271 270 270 271 271 271
258 257 257 257 256 256 257 257 256 256 256 256 256 257 258 257 258 258 258 257 257 258 258 259 260 261 261 262 263 264 265 267 267 268 268 269 270 270 270 270 270 271 271
258 258 257 256 256 256 257 257 257 257 257 257 257 257 257 258 259 259 259 258 258 258 258 259 260 260 260 261 262 264 265 267 267 268 268 269 269 270 270 270 271 271 270
259 259 258 257 257 257 257 257 257 257 257 257 257 257 258 259 260 260 260 258 258 258 259 259 260 260 260 261 262 263 264 266 267 268 268 268 269 269 270 270 271 271 271
259 258 258 258 258 257 257 257 257 257 257 257 257 257 258 258 259 260 260 259 259 259 259 259 260 260 261 262 263 263 264 265 266 267 268 268 268 269 269 270 270 270 270
259 259 258 258 258 257 257 256 257 258 258 258 258 258 257 258 259 260 260 260 259 259 259 260 260 260 261 262 263 264 264 265 266 266 267 267 267 268 268 270 270 270 270
260 260 259 259 259 258 257 256 257 258 258 258 258 258 258 259 260 261 261 261 261 261 260 260 260 260 262 263 264 265 265 265 266 267 267 267 267 267 267 268 269 269 270
260 260 259 259 260 259 258 257 257 257 258 258 258 258 258 259 260 261 261 262 262 261 260 260 260 260 262 263 264 264 265 265 265 265 266 267 267 266 267 268 269 270 270
260 260 259 259 260 259 259 258 258 258 258 258 259 259 259 259 260 262 262 262 262 261 261 260 259 260 262 262 263 264 264 265 264 265 265 266 266 265 267 268 269 270 270
261 260 260 260 260 260 260 260 259 259 259 259 259 260 260 260 260 260 261 261 262 261 260 259 259 260 261 262 262 263 264 264 264 264 265 266 266 266 266 268 269 270 269
262 261 260 261 261 260 260 260 260 261 260 260 260 261 261 260 260 259 260 260 260 260 259 259 259 260 261 261 261 262 263 263 264 264 265 266 266 267 267 267 268 269 269
263 263 262 262 262 262 261 261 261 260 260 260 260 260 260 260 259 258 259 259 259 259 259 259 259 260 261 261 260 261 262 263 264 265 265 265 266 267 267 267 267 268 269
Height
5794 5796 5797 5799 5801 5802 5804 5806 5807 5809 5811 5812 5814 5815 5817 5818 5819 5821 5822 5823 5824 5825 5826 5826 5827 5827 5828 5828 5828 5828 5828 5828 5828 5828 5828 5828 5827 5827 5827 5827 5827 5827 5826
5787 5788 5790 5792 5793 5795 5797 5798 5800 5802 5804 5805 5807 5809 5810 5812 5813 5814 5816 5817 5818 5819 5820 5820 5821 5821 5822 5822 5822 5823 5823 5823 5823 5823 5822 5822 5822 5822 5822 5822 5822 5821 5821
5778 5780 5782 5784 5785 5787 5789 5791 5793 5795 5796 5798 5800 5801 5803 5805 5806 5808 5809 5810 5811 5812 5813 5814 5814 5815 5815 5816 5816 5816 5816 5816 5817 5817 5816 5816 5816 5816 5816 5816 5816 5815 5815
5769 5771 5773 5775 5777 5779 5781 5783 5785 5787 5788 5790 5792 5794 5796 5797 5799 5801 5802 5803 5804 5806 5806 5807 5808 5808 5809 5809 5809 5810 5810 5810 5810 5810 5810 5810 5810 5810 5809 5809 5809 5809 5809
5760 5762 5765 5766 5768 5770 5772 5774 5776 5778 5780 5782 5784 5786 5788 5789 5791 5793 5795 5796 5797 5798 5799 5800 5801 5801 5802 5802 5803 5803 5803 5803 5803 5803 5803 5803 5803 5803 5803 5802 5802 5802 5802
5751 5753 5755 5757 5759 5761 5763 5765 5767 5769 5771 5773 5775 5777 5779 5781 5783 5785 5786 5788 5789 5790 5791 5792 5793 5794 5794 5795 5795 5795 5795 5795 5795 5796 5796 5796 5796 5795 5795 5795 5795 5795 5795
5742 5744 5746 5748 5750 5752 5754 5756 5758 5760 5762 5764 5766 5769 5771 5773 5774 5776 5778 5779 5781 5782 5783 5784 5785 5786 5787 5787 5787 5787 5787 5787 5788 5788 5788 5788 5788 5788 5787 5787 5787 5787 5787
5732 5734 5736 5739 5741 5743 5745 5746 5748 5750 5753 5755 5757 5759 5761 5764 5765 5767 5769 5770 5772 5773 5774 5775 5776 5778 5778 5779 5779 5779 5779 5779 5779 5780 5780 5780 5779 5779 5779 5779 5779 5779 5779
5723 5725 5727 5729 5731 5733 5735 5737 5739 5741 5743 5745 5747 5749 5751 5754 5756 5758 5759 5761 5762 5764 5765 5766 5767 5768 5769 5770 5770 5770 5771 5770 5771 5771 5771 5770 5770 5770 5770 5770 5770 5770 5770
5713 5715 5717 5719 5721 5723 5725 5727 5729 5730 5732 5734 5736 5738 5741 5743 5745 5748 5749 5751 5752 5754 5755 5757 5758 5759 5759 5760 5761 5761 5761 5761 5761 5761 5761 5761 5761 5760 5760 5760 5760 5760 5760
5703 5705 5707 5709 5711 5713 5715 5717 5718 5720 5722 5724 5725 5727 5729 5731 5733 5736 5738 5740 5742 5743 5745 5746 5747 5748 5749 5750 5751 5751 5751 5751 5751 5751 5751 5751 5751 5750 5750 5750 5750 5750 5750
5692 5694 5696 5698 5700 5702 5704 5706 5707 5709 5711 5713 5714 5716 5718 5719 5722 5724 5727 5728 5730 5732 5733 5735 5736 5738 5738 5739 5740 5740 5741 5741 5741 5741 5741 5741 5740 5740 5740 5740 5740 5739 5739
5682 5683 5685 5687 5688 5690 5692 5694 5696 5697 5699 5701 5703 5705 5706 5707 5709 5712 5714 5716 5718 5721 5722 5723 5725 5726 5727 5728 5729 5729 5730 5730 5730 5730 5730 5730 5730 5730 5729 5729 5729 5729 5729
5670 5671 5672 5674 5676 5678 5680 5682 5683 5685 5687 5689 5691 5692 5694 5695 5697 5699 5701 5704 5706 5708 5710 5712 5713 5714 5715 5716 5717 5718 5718 5719 5719 5719 5719 5719 5719 5719 5718 5718 5718 5717 5717
5657 5658 5660 5662 5663 5665 5667 5669 5671 5672 5674 5676 5678 5680 5681 5683 5684 5686 5688 5690 5693 5695 5698 5700 5701 5702 5703 5704 5705 5706 5707 5707 5707 5707 5707 5707 5707 5707 5707 5706 5706 5706 5706
5644 5645 5647 5648 5650 5652 5654 5656 5658 5659 5661 5663 5665 5667 5668 5670 5672 5673 5674 5676 5679 5682 5684 5687 5689 5690 5691 5692 5692 5693 5694 5694 5695 5695 5695 5695 5695 5695 5695 5695 5694 5694 5694
5631 5632 5633 5635 5637 5638 5640 5642 5644 5646 5648 5649 5651 5653 5655 5656 5658 5660 5661 5663 5665 5667 5670 5673 5674 5676 5677 5678 5679 5680 5680 5681 5681 5682 5682 5682 5682 5682 5682 5682 5682 5682 5682
5617 5618 5619 5621 5622 5624 5626 5628 5630 5632 5633 5635 5637 5639 5640 5642 5644 5646 5647 5649 5651 5653 5655 5658 5660 5661 5663 5664 5665 5666 5667 5667 5668 5668 5668 5668 5668 5669 5669 5669 5669 5669 5669
5603 5604 5605 5606 5608 5610 5611 5613 5615 5617 5619 5620 5622 5624 5626 5628 5630 5631 5633 5634 5636 5638 5640 5642 5645 5646 5648 5649 5650 5651 5652 5653 5653 5654 5654 5654 5654 5654 5655 5655 5655 5655 5655
5588 5589 5590 5592 5593 5595 5596 5598 5600 5602 5603 5605 5607 5609 5611 5613 5615 5616 5617 5619 5620 5622 5624 5626 5629 5631 5632 5633 5634 5635 5637 5637 5638 5639 5639 5639 5639 5640 5640 5640 5641 5641 5641
5573 5574 5575 5576 5578 5579 5581 5583 5585 5587 5588 5590 5592 5593 5595 5597 5599 5600 5602 5603 5604 5606 5608 5610 5612 5615 5616 5617 5618 5619 5620 5621 5622 5622 5623 5624 5624 5625 5625 5625 5625 5626 5626
5558 5558 5559 5561 5562 5564 5566 5567 5569 5571 5572 5574 5576 5578 5580 5581 5583 5584 5585 5587 5588 5589 5592 5593 5596 5598 5600 5601 5602 5603 5604 5605 5607 5608 5607 5608 5608 5609 5610 5611 5611 5610 5611
5542 5543 5544 5546 5547 5548 5550 5551 5553 5555 5557 5558 5560 5561 5563 5565 5566 5568 5569 5570 5571 5572 5575 5577 5579 5581 5583 5585 5586 5587 5587 5588 5590 5591 5590 5593 5593 5594 5594 5595 5595 5595 5595
5527 5528 5529 5530 5531 5533 5534 5535 5536 5538 5540 5541 5543 5545 5547 5548 5550 5551 5552 5554 5555 5557 5558 5560 5563 5565 5566 5568 5569 5571 5571 5572 5574 5574 5574 5576 5578 5578 5578 5579 5579 5579 5578
5511 5512 5513 5514 5515 5516 5517 5518 5519 5521 5523 5525 5526 5528 5529 5531 5533 5534 5535 5538 5539 5541 5542 5544 5546 5549 5550 5551 5552 5553 5554 5555 5557 5558 5559 5560 5562 5562 5562 5562 5562 5562 5562
5496 5496 5497 5498 5499 5500 5501 5501 5502 5504 5506 5508 5509 5511 5512 5514 5515 5516 5518 5521 5523 5525 5526 5528 5530 5532 5533 5534 5536 5537 5538 5539 5541 5542 5543 5543 5544 5544 5546 5546 5546 5545 5546